Location: Ballard
(38.3614°N, 94.1431°W)
Time: 12:01:34
(UTC-05:00)

ISS - Visible Passes

Search period start: 20 October 2019 00:00
Search period end: 30 October 2019 00:00
Orbit: 411 x 421 km, 51.6° (Epoch: 20 October)

Date Brightness Start Highest point End Pass type
(mag) Time Alt. Az. Time Alt. Az. Time Alt. Az.
21 Oct -0.5 06:47:32 10° SSE 06:48:58 12° SE 06:50:24 10° ESE visible
23 Oct -2.2 06:45:06 10° SSW 06:48:12 36° SE 06:51:20 10° ENE visible
24 Oct -1.2 05:57:12 10° S 05:59:44 20° SE 06:02:17 10° E visible
25 Oct -0.6 05:11:17 11° SE 05:11:19 11° SE 05:12:20 10° ESE visible
25 Oct -3.8 06:44:15 10° WSW 06:47:37 70° NW 06:50:58 10° NE visible
26 Oct -3.4 05:58:24 51° S 05:59:00 62° SE 06:02:20 10° ENE visible
27 Oct -0.9 05:12:22 18° E 05:12:22 18° E 05:13:29 10° ENE visible
27 Oct -2.6 06:45:17 17° WNW 06:47:10 28° NNW 06:50:08 10° NNE visible
28 Oct -2.9 05:59:04 38° N 05:59:04 38° N 06:01:40 10° NE visible
29 Oct -0.6 05:12:43 13° NE 05:12:43 13° NE 05:13:05 10° NE visible
29 Oct -1.7 06:45:37 13° NW 06:46:54 15° NNW 06:48:59 10° NNE visible
